Location: Augirein
(42.9320°N, 0.9181°E)
Time: 19:57:59
(UTC+00:00)

ADEOS Rocket - Pass Details

Date: 20 June 2021
Orbit: 858 x 1307 km, 98.7° (Epoch: 02 August)

Event Time Altitude Azimuth Distance (km) Brightness Sun altitude
Exits shadow 02:32:25 10° 177° (S) 3,247 5.3 -14.7°
Reaches altitude 10° 02:32:32 10° 177° (S) 3,202 5.2 -14.7°
Maximum altitude 02:39:50 64° 258° (WSW) 1,279 3.4 -13.9°
Drops below altitude 10° 02:46:30 10° 340° (NNW) 2,924 5.9 -13.1°
Sets 02:48:57 0° 344° (NNW) 3,822 6.6 -12.8°
